Waarnemingen

Advertentie
Mijn weer
Boulogne, Frankrijk (7002): temperatuur & dauwpunt: 17.07.2017 10:00:00 - 23.07.2017 10:00:00 (CEST)Boulogne, Frankrijk (7002): windsnelheid & windstoten: 17.07.2017 10:00:00 - 23.07.2017 10:00:00 (CEST)Boulogne, Frankrijk (7002): windrichting: 17.07.2017 10:00:00 - 23.07.2017 10:00:00 (CEST)Boulogne, Frankrijk (7002): luchtdruk: 17.07.2017 10:00:00 - 23.07.2017 10:00:00 (CEST)Boulogne, Frankrijk (7002): zicht: 17.07.2017 10:00:00 - 23.07.2017 10:00:00 (CEST)Boulogne, Frankrijk (7002): neerslag: 17.07.2017 10:00:00 - 23.07.2017 10:00:00 (CEST)
Datum & Tijd tt [°C] td [°C] ff [km/u] ff [kn] fx [km/u] fx [kn] dd ppp [hPa] vv [km] rr [mm]
23.07.2017 10:00:00 15,4 12,0 21 11 32 17 W 1012,6 - 0,0
23.07.2017 09:00:00 15,1 12,8 22 12 36 19 W 1011,7 - 0,0
23.07.2017 08:00:00 15,3 13,0 19 10 43 23 W 1011,0 25 2,6
23.07.2017 07:00:00 15,6 12,9 27 14 41 22 WZW 1010,4 - 0,0
23.07.2017 06:00:00 15,4 12,7 29 16 48 26 ZW 1010,0 - 0,0
23.07.2017 05:00:00 15,4 12,5 29 16 53 28 ZW 1010,0 - 0,0
23.07.2017 04:00:00 14,7 13,2 27 15 51 27 ZZW 1010,1 - 10,7
23.07.2017 03:00:00 13,7 11,9 18 10 35 19 ZZW 1010,5 - 3,2
23.07.2017 02:00:00 13,6 10,8 18 10 29 16 ZZO 1011,0 15 0,0
23.07.2017 01:00:00 13,7 10,9 14 7 23 13 ZZO 1011,4 - 0,0
23.07.2017 00:00:00 13,9 10,5 13 7 27 14 ZZO 1011,6 - 0,0
22.07.2017 23:00:00 13,8 10,8 15 8 44 24 Z 1011,4 12 0,8
22.07.2017 22:00:00 15,6 10,1 14 7 31 17 ZZW 1010,9 - 0,0
22.07.2017 21:00:00 15,5 10,0 18 10 36 19 ZZW 1011,1 - 0,0
22.07.2017 20:00:00 16,2 11,4 22 12 34 18 ZW 1010,8 25 0,0
22.07.2017 19:00:00 15,3 12,8 18 10 48 26 WZW 1011,0 - 0,4
22.07.2017 18:00:00 15,8 10,3 23 13 49 27 WZW 1011,0 - 0,0
22.07.2017 17:00:00 17,8 11,6 17 9 30 16 WZW 1010,6 25 0,0
22.07.2017 16:00:00 17,8 10,7 16 9 36 20 ZZW 1010,6 - 0,0
22.07.2017 15:00:00 17,9 12,3 27 15 43 23 ZW 1010,9 - 0,0
22.07.2017 14:00:00 17,8 11,8 24 13 37 20 WZW 1010,7 25 0,0
22.07.2017 13:00:00 17,4 12,5 27 15 44 24 ZW 1010,5 - 0,0
22.07.2017 12:00:00 17,1 12,6 21 11 37 20 ZW 1010,3 - 0,0
22.07.2017 11:00:00 16,8 11,3 22 12 34 18 ZW 1010,0 25 0,0
22.07.2017 10:00:00 16,7 13,4 14 8 29 16 Z 1009,6 - 0,0
22.07.2017 09:00:00 15,7 12,8 17 9 33 18 ZZW 1009,4 - 0,0
22.07.2017 08:00:00 15,1 13,0 18 10 29 15 ZW 1009,0 - 0,2
22.07.2017 07:00:00 14,1 13,0 18 10 32 17 ZZO 1008,7 - 1,4
22.07.2017 06:00:00 14,7 13,2 16 8 34 18 ZZO 1008,1 - 3,2
22.07.2017 05:00:00 16,6 11,9 19 10 32 18 Z 1008,0 - 0,0
22.07.2017 04:00:00 17,2 9,9 20 11 35 19 ZZO 1007,9 - 0,0
22.07.2017 03:00:00 17,8 9,7 18 10 32 17 ZZO 1007,9 - 0,0
22.07.2017 02:00:00 18,3 9,6 18 10 30 16 ZZO 1008,1 - 0,0
22.07.2017 01:00:00 18,2 9,5 17 9 28 15 ZZO 1008,5 - 0,0
22.07.2017 00:00:00 18,0 9,3 13 7 24 13 ZO 1008,5 - 0,0
21.07.2017 23:00:00 18,8 9,6 9 5 19 11 ZO 1008,5 25 0,0
21.07.2017 22:00:00 19,5 9,1 9 5 21 11 ZZO 1008,4 - 0,0
21.07.2017 21:00:00 20,5 8,8 12 6 21 11 Z 1008,4 - 0,0
21.07.2017 20:00:00 21,3 8,2 10 6 19 11 ZZW 1008,4 - 0,0
21.07.2017 19:00:00 20,5 8,5 6 3 11 6 W 1008,8 - 0,0
21.07.2017 18:00:00 18,3 11,1 6 4 19 11 NW 1009,4 - 0,0
21.07.2017 17:00:00 19,1 11,9 10 6 18 10 WNW 1009,8 25 0,0
21.07.2017 16:00:00 18,7 11,3 10 5 20 11 W 1010,4 - 0,0
21.07.2017 15:00:00 17,7 12,2 14 7 25 13 W 1010,7 - 0,0
21.07.2017 14:00:00 18,2 11,5 17 9 31 17 ZW 1011,0 20 0,0
21.07.2017 13:00:00 18,4 11,9 25 13 43 23 ZW 1011,2 - 0,0
21.07.2017 12:00:00 20,6 11,0 19 11 43 23 Z 1011,3 - 0,0
21.07.2017 11:00:00 19,2 10,5 24 13 43 23 ZZO 1011,9 - 0,0
21.07.2017 10:00:00 17,4 9,0 18 10 38 21 ZO 1012,2 - 0,0
21.07.2017 09:00:00 15,7 8,7 17 9 29 16 ZO 1012,6 - 0,0
21.07.2017 08:00:00 13,5 8,5 13 7 24 13 ZO 1012,6 - 0,0
21.07.2017 07:00:00 12,9 8,8 14 7 22 12 ZO 1012,7 - 0,0
21.07.2017 06:00:00 12,3 9,3 13 7 22 12 ZO 1013,0 - 0,0
21.07.2017 05:00:00 12,6 9,6 10 5 20 11 ZO 1013,0 - 0,0
21.07.2017 04:00:00 14,3 9,5 9 5 24 13 ZZO 1013,4 - 0,0
21.07.2017 03:00:00 15,3 9,2 16 9 33 18 ZW 1013,5 - 0,0
21.07.2017 02:00:00 15,5 10,7 18 10 35 19 WZW 1013,7 15 0,0
21.07.2017 01:00:00 15,5 9,8 24 13 38 20 WZW 1013,4 - 0,0
21.07.2017 00:00:00 15,4 9,7 22 12 45 25 WZW 1013,5 - 0,0
20.07.2017 23:00:00 15,6 11,2 26 14 48 26 W 1013,6 15 0,0
20.07.2017 22:00:00 15,7 10,0 30 16 52 28 WZW 1013,5 - 0,0
20.07.2017 21:00:00 16,0 11,0 34 18 59 32 WZW 1013,1 - 0,0
20.07.2017 20:00:00 16,6 10,0 36 19 61 33 WZW 1012,7 15 0,0
20.07.2017 19:00:00 16,9 10,5 37 20 64 35 WZW 1012,3 - 0,0
20.07.2017 18:00:00 17,4 11,0 38 21 69 37 WZW 1011,8 - 0,0
20.07.2017 17:00:00 17,4 11,4 45 24 69 38 WZW 1011,2 - 0,0
20.07.2017 16:00:00 17,5 12,0 48 26 71 38 WZW 1010,8 - 0,0
20.07.2017 15:00:00 17,6 13,1 47 25 67 36 WZW 1010,0 - 0,0
20.07.2017 14:00:00 17,2 13,5 45 24 67 36 WZW 1009,0 15 0,0
20.07.2017 13:00:00 16,8 15,1 40 22 57 31 ZW 1008,4 - 0,2
20.07.2017 12:00:00 18,0 16,5 24 13 54 29 ZW 1007,6 - 0,0
20.07.2017 11:00:00 18,9 15,9 23 13 50 27 ZZW 1007,3 - 0,0
20.07.2017 10:00:00 19,1 15,6 26 14 51 28 ZZW 1007,1 - 0,0
20.07.2017 09:00:00 19,4 15,7 23 12 48 26 ZZW 1006,9 - 0,0
20.07.2017 08:00:00 19,0 16,0 21 12 40 22 ZZW 1006,9 - 0,0
20.07.2017 07:00:00 18,9 16,1 21 11 40 21 ZZW 1006,9 - 0,0
20.07.2017 06:00:00 18,6 16,7 11 6 33 18 ZZW 1007,1 - 0,0
20.07.2017 05:00:00 18,8 17,6 16 8 29 16 Z 1007,1 - 0,0
20.07.2017 04:00:00 18,6 16,7 12 7 33 18 Z 1007,6 - 0,0
20.07.2017 03:00:00 18,5 16,3 11 6 22 12 Z 1007,7 - 0,0
20.07.2017 02:00:00 18,3 16,1 11 6 18 10 ZZO 1008,2 20 0,0
20.07.2017 01:00:00 18,4 15,8 10 5 14 8 Z 1008,3 - 0,0
20.07.2017 00:00:00 18,3 15,7 9 5 16 8 W 1008,3 - 0,0
19.07.2017 23:00:00 18,1 15,7 13 7 21 12 W 1008,5 - 0,0
19.07.2017 22:00:00 18,0 16,0 12 7 22 12 W 1008,7 - 0,0
19.07.2017 21:00:00 18,1 16,4 13 7 26 14 W 1008,2 - 0,0
19.07.2017 20:00:00 19,0 16,6 16 9 38 21 WZW 1008,1 - 0,0
19.07.2017 19:00:00 20,5 16,7 21 11 40 21 WZW 1007,9 - 0,0
19.07.2017 18:00:00 20,0 16,2 19 10 32 17 ZW 1007,7 - 0,0
19.07.2017 17:00:00 20,5 16,3 19 10 35 19 WZW 1007,7 - 0,0
19.07.2017 16:00:00 21,3 16,3 24 13 36 20 WZW 1007,8 - 0,0
19.07.2017 15:00:00 20,5 16,5 19 10 34 18 WZW 1008,0 - 0,0
19.07.2017 14:00:00 21,0 17,6 20 11 32 17 WZW 1007,7 - 0,0
19.07.2017 13:00:00 21,5 17,5 18 10 32 17 ZW 1007,5 - 0,0
19.07.2017 12:00:00 20,6 17,4 24 13 39 21 ZW 1007,5 - 0,0
19.07.2017 11:00:00 20,1 17,5 16 9 29 15 ZW 1007,2 10 0,0
19.07.2017 10:00:00 20,4 17,6 15 8 44 24 Z 1007,0 - 0,0
19.07.2017 09:00:00 23,0 16,3 20 11 41 22 ZZW 1006,7 - 0,0
19.07.2017 08:00:00 23,8 15,8 16 9 29 16 Z 1005,9 - 0,0
19.07.2017 07:00:00 22,3 15,2 2 1 27 15 N 1005,8 - 0,0
19.07.2017 06:00:00 22,6 15,2 18 10 46 25 ZO 1005,7 - 0,0
19.07.2017 05:00:00 22,3 14,9 25 14 39 21 ZO 1005,6 12 0,0
19.07.2017 04:00:00 24,7 14,8 26 14 50 27 OZO 1006,3 - 0,0
19.07.2017 03:00:00 23,0 13,7 27 15 55 30 OZO 1006,8 - 0,0
19.07.2017 02:00:00 23,3 13,7 29 16 55 30 O 1007,4 12 0,0
19.07.2017 01:00:00 23,6 14,0 30 16 54 29 O 1008,4 - 0,0
19.07.2017 00:00:00 24,0 14,4 31 17 48 26 O 1009,4 - 0,0
18.07.2017 23:00:00 24,0 14,7 27 14 49 26 O 1010,1 - 0,0
18.07.2017 22:00:00 24,1 15,3 29 15 46 25 ONO 1010,1 - 0,0
18.07.2017 21:00:00 24,5 15,7 23 12 38 20 ONO 1011,2 - 0,0
18.07.2017 20:00:00 25,2 16,1 20 11 38 21 ONO 1011,2 15 0,0
18.07.2017 19:00:00 25,7 16,3 19 11 37 20 ONO 1012,0 - 0,0
18.07.2017 18:00:00 26,8 15,8 16 9 36 19 NO 1012,6 - 0,0
18.07.2017 17:00:00 28,0 16,0 16 9 38 20 NO 1013,2 15 0,0
18.07.2017 16:00:00 28,4 16,3 14 8 38 20 NO 1013,4 - 0,0
18.07.2017 15:00:00 27,9 15,5 23 12 36 19 ONO 1014,0 - 0,0
18.07.2017 14:00:00 27,1 15,5 22 12 41 22 ONO 1014,8 15 0,0
18.07.2017 13:00:00 25,3 15,6 24 13 40 21 ONO 1015,6 - 0,0
18.07.2017 12:00:00 24,7 15,1 22 12 40 21 ONO 1016,1 - 0,0
18.07.2017 11:00:00 23,5 14,2 23 12 40 22 O 1016,9 15 0,0
18.07.2017 10:00:00 21,7 11,7 23 13 41 22 O 1017,5 - 0,0
18.07.2017 09:00:00 19,5 11,0 24 13 39 21 O 1017,9 - 0,0
18.07.2017 08:00:00 17,6 10,5 25 13 38 21 O 1018,3 - 0,0
18.07.2017 07:00:00 17,5 9,9 18 10 41 22 O 1018,8 - 0,0
18.07.2017 06:00:00 17,4 10,5 21 11 41 22 O 1018,9 - 0,0
18.07.2017 05:00:00 17,0 11,0 24 13 44 24 O 1019,1 - 0,0
18.07.2017 04:00:00 16,4 11,3 24 13 40 22 O 1019,6 - 0,0
18.07.2017 03:00:00 16,4 10,5 23 12 36 19 O 1020,2 - 0,0
18.07.2017 02:00:00 17,1 10,9 22 12 39 21 O 1020,6 15 0,0
18.07.2017 01:00:00 17,4 11,9 29 16 44 24 ONO 1020,9 - 0,0
18.07.2017 00:00:00 17,8 12,7 27 15 41 22 ONO 1021,2 - 0,0
17.07.2017 23:00:00 18,4 13,3 26 14 39 21 ONO 1021,2 15 0,0
17.07.2017 22:00:00 19,4 13,1 21 11 35 19 ONO 1021,2 - 0,0
17.07.2017 21:00:00 20,6 13,1 14 8 34 19 NO 1021,1 - 0,0
17.07.2017 20:00:00 21,7 13,1 16 9 34 18 NO 1020,8 - 0,0
17.07.2017 19:00:00 21,9 14,0 16 9 34 18 NO 1020,9 - 0,0
17.07.2017 18:00:00 22,9 15,0 16 9 32 17 NO 1021,3 - 0,0
17.07.2017 17:00:00 23,1 13,8 16 9 37 20 NNO 1021,7 40 0,0
17.07.2017 16:00:00 22,9 15,5 18 10 35 19 NNO 1021,9 - 0,0
17.07.2017 15:00:00 23,6 15,1 11 6 29 16 NO 1022,4 - 0,0
17.07.2017 14:00:00 22,8 16,3 12 7 26 14 NNO 1022,5 40 0,0
17.07.2017 13:00:00 22,1 16,8 12 6 26 14 NO 1022,8 - 0,0
17.07.2017 12:00:00 20,9 16,9 11 6 27 14 NO 1022,9 - 0,0
17.07.2017 11:00:00 19,7 16,7 11 6 25 14 NO 1023,2 40 0,0
17.07.2017 10:00:00 18,5 17,7 9 5 24 13 NO 1023,1 - 0,0

tt = temperatuur
td = dauwpunt
ff = windsnelheid
fx = windstoten
dd = windrichting
ppp = luchtdruk
vv = zicht
rr = neerslag

Weerstations in de omgeving